#timestamp,LO_Frequency,Hit,StdDev 
1619967615.5,286047001.2,N
1619967635.3,286047001.2,N
1619967655.2,286047001.1,N
1619967675.0,286047001.2,N
1619967675.9,286047001.2,N
1619967695.8,286047000.8,N
1619967715.6,286047001.1,N
1619967735.4,286047001.1,N
1619967755.3,286046998.3,Y
1619967775.1,286046998.7,P
1619967795.9,286046998.8,N
1619967815.7,286046998.3,N
1619967835.5,286046998.4,N
1619967855.4,286046998.8,N
1619967875.2,286046998.8,N
1619967895.0,286046998.1,N
1619967895.9,286046998.1,N
1619967915.8,286046998.1,N
1619967935.6,286046998.7,N
1619967955.5,286046998.7,N
1619967975.3,286046998.3,N
1619967995.1,286046998.3,N
1619968015.9,286046998.4,N
1619968035.7,286046998.1,Y
1619968055.6,286047000.1,P
1619968075.4,286047000.2,N
1619968095.2,286047000.6,N
1619968115.1,286046999.9,N
1619968116.0,286046999.9,N
1619968135.8,286047000.2,N
1619968155.6,286047000.0,N
1619968175.5,286047000.2,N
1619968195.3,286047000.2,N
1619968215.2,286047000.0,N
1619968235.9,286047000.4,N
1619968255.7,286047000.1,N
1619968275.6,286047000.3,N
1619968295.4,286047002.6,Y
1619968315.3,286047002.7,P
1619968335.1,286047002.7,N
1619968336.0,286047002.7,N
1619968355.8,286046999.8,N
1619968375.7,286047000.4,N
1619968395.5,286047000.3,N
1619968415.4,286047000.1,N
1619968435.2,286047000.9,N
1619968455.0,286046999.9,N
1619968455.9,286046999.9,N
1619968475.8,286046999.7,N
1619968495.6,286047002.7,N
1619968515.4,286047002.6,N
1619968535.3,286047002.1,N
1619968555.1,286047002.7,N
1619968575.9,286046999.8,N
1619968595.7,286046999.9,N
1619968615.5,286047000.5,N
1619968635.4,286047001.1,N
1619968655.2,286047000.3,N
1619968675.0,286047000.2,N
1619968675.9,286047000.2,N
1619968695.8,286046999.8,N
1619968715.6,286047002.8,N
1619968735.5,286047000.2,N
1619968755.3,286047000.2,N
1619968775.1,286047002.8,N
1619968795.9,286047002.3,N
1619968815.7,286046999.7,N
1619968835.5,286046999.9,N
1619968855.4,286047000.2,N
1619968875.2,286047000.2,N
1619968895.1,286047002.7,N
1619968896.0,286047002.7,N
1619968915.8,286047000.0,N
1619968935.6,286047002.6,N
1619968955.5,286046999.8,N
1619968975.3,286046999.9,N
1619968995.2,286047002.3,N
1619969015.9,286047002.4,N
1619969035.7,286047002.7,N
1619969055.6,286047001.6,N
1619969075.4,286047002.0,N
1619969095.2,286047002.1,N
1619969115.1,286047002.8,N
1619969116.0,286047002.8,N
1619969135.8,286047002.5,N
1619969155.7,286047002.5,N
1619969175.5,286047002.0,N
1619969195.3,286047002.5,N
1619969215.2,286047002.5,N
1619969235.0,286047002.3,N
1619969235.9,286047002.3,N
1619969255.8,286047001.5,N
1619969275.6,286047002.2,N
1619969295.4,286047002.1,N
1619969315.3,286047002.5,N
1619969335.1,286047002.6,N
1619969355.8,286047002.8,N
1619969375.7,286047002.1,N
1619969395.5,286047002.0,N
1619969415.4,286047002.3,N
1619969435.2,286047001.7,N
1619969455.0,286047002.3,N
1619969455.9,286047002.3,N
1619969475.8,286047001.9,N
1619969495.6,286047002.5,Y
1619969515.5,286046999.0,P
1619969535.3,286046998.4,N
1619969555.1,286046998.5,N
1619969575.9,286046998.2,N
1619969595.7,286046998.4,N
1619969615.5,286046998.3,N
1619969635.4,286046998.6,N
1619969655.2,286046999.1,N
1619969675.1,286046998.3,N
1619969676.0,286046998.3,N
1619969695.8,286046998.5,N
1619969715.6,286046998.6,N
1619969735.5,286046998.3,N
1619969755.3,286046998.3,N
1619969775.1,286046998.3,N
1619969795.9,286046998.3,N
1619969815.7,286046999.3,N
1619969835.6,286046998.4,N
1619969855.4,286046998.7,N
1619969875.2,286046998.7,N
1619969895.1,286046996.5,Y
1619969896.0,286046996.5,P
1619969915.8,286047001.1,N
1619969935.7,286047000.7,N
1619969955.5,286047001.1,N
1619969975.3,286046998.1,N
1619969995.2,286047000.5,N
1619970015.0,286047000.6,N
1619970015.9,286047000.6,N
1619970035.7,286047001.2,N
1619970055.6,286047001.0,N
1619970075.4,286046998.3,N
1619970095.3,286047000.8,N
1619970115.1,286047000.7,N
1619970135.8,286047000.4,N
1619970155.7,286046999.9,N
1619970175.5,286047000.8,N
1619970195.4,286047000.1,N
1619970215.2,286046999.8,N
1619970235.0,286046999.8,N
1619970235.9,286046999.8,N
1619970255.8,286047000.2,N
1619970275.6,286046999.9,N
1619970295.4,286047000.0,N
1619970315.3,286046999.9,N
1619970335.1,286047000.1,N
1619970355.9,286046999.7,N
1619970375.7,286047000.1,N
1619970395.5,286047000.1,N
1619970415.4,286047002.8,N
1619970435.2,286047002.4,N
1619970455.0,286047002.4,N
1619970456.0,286047002.4,N
1619970475.8,286047002.2,N
1619970495.6,286047002.1,N
1619970515.5,286047002.4,N
1619970535.3,286047000.2,N
1619970555.1,286047002.4,N
1619970575.9,286047002.7,N
1619970595.7,286047002.4,N
1619970615.6,286047002.4,N
1619970635.4,286047002.8,N
1619970655.2,286047002.8,N
1619970675.1,286047000.4,N
1619970676.0,286047000.4,N
1619970695.8,286047002.4,N
1619970715.7,286046999.7,N
1619970735.5,286047000.3,N
1619970755.3,286046999.7,N
1619970775.2,286047000.3,N
1619970795.9,286047002.7,N
1619970815.7,286047002.3,N
1619970835.6,286046999.8,N
1619970855.4,286047002.8,N
1619970875.3,286046999.8,N
1619970895.1,286047002.7,N
1619970896.0,286047002.7,N
1619970915.8,286046999.7,N
1619970935.7,286047002.7,N
1619970955.5,286047000.2,N
1619970975.3,286046999.7,N
1619970995.2,286047000.3,N
1619971015.0,286047002.3,N
1619971015.9,286047002.3,N
1619971035.8,286047002.7,N
1619971055.6,286047000.3,N
1619971075.4,286047002.7,N
1619971095.3,286047002.8,N
1619971115.1,286047002.8,N
1619971135.9,286047000.0,N
1619971155.7,286046999.7,N
1619971175.5,286047002.8,N
1619971195.4,286047000.2,N
